Lid_Strength_Index
1 1 1 1 2 1 1 1 2 2 3 3 2 -1 -1 -0 -1 -0 -0 -0 1 2 2 2 1 1 1 1 -0 -0 0 1 3 1 0 -1 -1 -1 -1 -2 -2 -2 -2
1 1 1 2 2 3 2 2 2 3 3 3 0 -0 -0 -0 -1 -0 -0 0 2 3 2 2 2 2 1 0 0 0 1 0 1 2 1 0 -0 -1 -1 -1 -1 -1 -1
1 1 2 3 3 3 3 3 3 3 4 2 0 -0 -0 0 1 -0 -0 2 3 2 2 2 1 1 1 1 1 1 1 0 0 1 1 0 1 1 0 -0 -1 -1 -1
1 2 3 4 3 3 3 2 3 3 2 2 0 -0 -0 0 1 0 1 1 3 3 2 2 1 1 1 0 1 1 1 1 0 1 1 2 2 1 2 3 3 0 0
3 3 3 3 2 3 2 3 3 3 3 2 1 1 0 0 2 1 1 2 2 3 2 2 1 2 2 1 1 0 0 2 2 3 3 2 3 2 2 3 3 1 -0
4 4 4 3 3 3 3 3 3 4 4 2 2 2 2 2 3 3 2 3 3 3 3 2 2 2 2 3 3 2 1 0 1 2 3 3 2 2 2 3 3 3 4
3 4 5 4 4 4 4 4 4 5 4 4 3 3 2 1 2 2 3 3 3 3 2 2 2 2 1 1 3 3 3 2 1 0 2 2 1 0 0 2 2 3 3
3 4 4 4 5 4 3 4 5 5 4 4 4 4 3 3 3 1 2 1 2 2 2 1 1 1 1 0 0 1 1 1 1 1 1 1 1 -1 -1 0 0 1 2
3 4 4 4 4 3 4 5 4 4 4 4 4 4 4 3 4 4 1 0 0 1 1 1 1 1 3 2 1 1 1 1 3 3 3 3 2 2 2 1 3 3 4
3 4 4 3 3 4 4 4 3 3 3 4 4 3 4 4 5 4 1 1 0 1 -0 0 2 2 3 3 1 1 2 2 1 1 1 1 0 1 2 -0 1 3 3
3 4 3 3 3 3 3 3 3 3 3 3 3 3 3 2 3 4 4 1 2 2 2 2 1 3 4 4 4 0 1 1 1 1 1 1 1 1 1 -0 -0 1 3
4 4 3 3 3 4 3 3 3 3 4 3 3 3 2 2 4 4 4 4 2 2 2 2 1 4 5 4 4 2 2 2 1 1 2 2 1 1 1 0 -1 -0 0
4 4 4 3 3 3 4 4 4 3 3 4 4 4 4 3 2 4 3 3 3 2 1 2 4 4 4 4 3 3 2 -0 0 2 2 2 1 0 -0 -0 -0 -0 -0
5 4 3 4 3 4 4 4 4 4 4 3 4 4 3 3 3 1 -0 -0 2 2 1 1 1 3 4 3 3 1 0 0 1 1 2 1 0 1 1 1 2 2 3
5 4 4 4 4 4 4 4 4 3 4 3 3 3 3 3 2 3 1 0 0 1 0 -0 1 1 1 1 1 -0 -0 0 1 0 1 1 1 1 1 1 2 3 4
5 5 5 4 5 4 4 4 7 7 8 8 9 5 2 6 7 8 8 7 6 6 1 1 1 1 2 1 1 1 0 0 0 0 0 1 1 1 1 2 2 3 5
5 5 5 5 4 4 4 4 5 6 9 10 11 10 9 7 10 9 9 8 8 7 2 2 1 1 1 1 1 1 1 0 -1 0 0 0 0 1 3 3 3 4 4
5 7 4 3 4 4 4 4 4 4 3 3 9 8 10 9 9 10 9 9 4 5 3 3 1 1 1 1 1 1 0 0 0 0 0 0 1 2 2 3 3 4 4
4 4 3 3 3 4 3 3 3 3 3 3 3 5 5 9 9 10 10 3 2 1 2 1 1 1 1 0 0 0 0 0 0 0 0 1 1 2 3 3 3 6 5
3 4 3 2 3 3 3 3 3 3 3 2 1 1 0 2 1 1 3 4 2 1 1 0 0 0 0 0 0 -0 0 0 0 0 1 1 2 2 3 3 3 3 3
4 4 3 3 3 4 3 3 3 2 1 1 1 1 5 1 1 1 1 2 3 0 0 0 -0 -0 -0 -0 -0 0 1 1 1 1 1 2 2 3 2 2 3 3 3
4 4 3 3 3 3 3 3 2 1 1 1 1 1 7 1 1 1 1 1 -0 -0 -1 -0 -0 -1 -1 -0 1 1 2 2 2 1 2 2 2 2 2 2 3 3 3
4 4 4 3 3 4 3 3 2 1 1 1 1 1 1 1 0 0 0 -0 -0 -1 -1 -1 0 1 0 0 0 1 2 2 1 1 1 2 2 2 2 3 3 3 4
3 3 4 3 3 3 3 2 1 4 1 1 1 1 1 0 0 0 0 0 -0 -1 -1 -0 0 0 0 0 1 1 1 1 1 1 1 1 2 3 2 3 3 3 4
3 3 4 3 3 2 1 1 1 1 1 1 1 0 0 0 0 0 0 -0 0 0 0 0 1 1 0 0 0 1 3 7 3 4 1 1 2 2 3 3 3 4 4
3 3 3 2 1 1 1 1 1 1 1 1 0 -0 0 1 0 0 -0 0 1 1 1 1 1 0 0 1 1 5 9 11 6 10 2 2 2 3 3 3 4 4 4